Harrisburg, IL

10:53 PM CDT on March 24, 2017 (GMT -0500)
Harrisburg-Raleigh

Weather History for KHSB - February, 2013

Change the Weather History Date:

Friday, February 8, 2013

  Actual Average (KMWA) Record (KMWA)
Temperature  
Mean Temperature 37 °F -  
Max Temperature 42 °F 36 °F 64 °F (2001)
Min Temperature 32 °F 16 °F -4 °F (1985)
Degree Days  
Heating Degree Days 28    
Moisture  
Dew Point 32 °F    
Average Humidity 83    
Maximum Humidity 100    
Minimum Humidity 75    
Precipitation  
Precipitation 0.00 in - - ()
Sea Level Pressure  
Sea Level Pressure 30.24 in    
Wind  
Wind Speed 12 mph (North)    
Max Wind Speed 18 mph    
Max Gust Speed 24 mph    
Visibility 10 miles    
Events      
Averages and records for this station are not official NWS values.
T = Trace of Precipitation, MM = Missing Value Source: NWS Daily Summary

Daily Weather History Graph

Daily Weather History Graph

Search for Another Location

Airport or City:

Trip Planner

Search our weather history database for the weather conditions in past years. The results will help you decide how hot, cold, wet, or windy it might be!

Date:

Astronomy

Feb. 08, 2013 Rise Set
Actual Time 6:51 AM CST 5:25 PM CST
Civil Twilight 6:24 AM CST 5:53 PM CST
Nautical Twilight 5:53 AM CST 6:24 PM CST
Astronomical Twilight 5:22 AM CST 6:54 PM CST
Moon 5:19 AM CST (2/8) 3:59 PM CST (2/8)
Length of Visible Light 11h 28m
Length of Day
10h 34m
Waning Crescent, 3% of the Moon is Illuminated
Feb 8
Waning Crescent
Feb 10
New
Feb 17
First Quarter
Feb 25
Full
Mar 4
Last Quarter

Hourly Weather History & Observations

Time (CST) Temp. Windchill Dew Point Humidity Pressure Visibility Wind Dir Wind Speed Gust Speed Precip Events Conditions
12:15 AM 42.8 °F 35.8 °F 42.8 °F 100% 29.97 in 10.0 mi NW 13.8 mph - N/A   Overcast
12:35 AM 42.8 °F 34.5 °F 41.0 °F 93% 29.98 in 10.0 mi NW 18.4 mph 23.0 mph N/A   Overcast
12:55 AM 42.8 °F 35.4 °F 41.0 °F 93% 29.99 in 10.0 mi NW 15.0 mph 23.0 mph N/A   Overcast
1:15 AM 41.0 °F 32.8 °F 41.0 °F 100% 29.99 in 10.0 mi NNW 16.1 mph - N/A   Overcast
1:35 AM 41.0 °F 33.5 °F 39.2 °F 93% 30.00 in 10.0 mi North 13.8 mph 21.9 mph N/A   Overcast
1:55 AM 41.0 °F 33.5 °F 37.4 °F 87% 30.01 in 10.0 mi NNW 13.8 mph 21.9 mph N/A   Overcast
2:15 AM 41.0 °F 33.5 °F 37.4 °F 87% 30.02 in 10.0 mi NNW 13.8 mph 18.4 mph N/A   Overcast
2:35 AM 41.0 °F 35.2 °F 35.6 °F 81% 30.02 in 10.0 mi NNW 9.2 mph - N/A   Overcast
2:55 AM 41.0 °F 35.2 °F 35.6 °F 81% 30.03 in 10.0 mi NNW 9.2 mph - N/A   Overcast
3:15 AM 41.0 °F 35.8 °F 35.6 °F 81% 30.03 in 10.0 mi NNW 8.1 mph 17.3 mph N/A   Overcast
3:35 AM 39.2 °F 32.5 °F 35.6 °F 87% 30.05 in 10.0 mi NNW 10.4 mph 20.7 mph N/A   Overcast
3:55 AM 39.2 °F 32.0 °F 35.6 °F 87% 30.06 in 10.0 mi NNW 11.5 mph - N/A   Overcast
4:15 AM 37.4 °F 28.5 °F 35.6 °F 93% 30.07 in 10.0 mi NNW 15.0 mph 23.0 mph N/A   Overcast
4:35 AM 37.4 °F 28.5 °F 33.8 °F 87% 30.08 in 10.0 mi NNW 15.0 mph 18.4 mph N/A   Overcast
4:55 AM 37.4 °F 28.9 °F 33.8 °F 87% 30.09 in 10.0 mi NNW 13.8 mph 19.6 mph N/A   Overcast
5:15 AM 37.4 °F 28.5 °F 33.8 °F 87% 30.10 in 10.0 mi NNW 15.0 mph 24.2 mph N/A   Overcast
5:35 AM 37.4 °F 30.8 °F 33.8 °F 87% 30.11 in 10.0 mi NNW 9.2 mph - N/A   Overcast
5:55 AM 37.4 °F 28.2 °F 33.8 °F 87% 30.12 in 10.0 mi NNW 16.1 mph 21.9 mph N/A   Overcast
6:15 AM 37.4 °F 29.3 °F 33.8 °F 87% 30.13 in 10.0 mi NNW 12.7 mph - N/A   Overcast
6:35 AM 37.4 °F 28.9 °F 32.0 °F 81% 30.15 in 10.0 mi NNW 13.8 mph 19.6 mph N/A   Overcast
6:55 AM 37.4 °F 29.3 °F 32.0 °F 81% 30.16 in 10.0 mi NNW 12.7 mph - N/A   Overcast
7:15 AM 37.4 °F 28.9 °F 33.8 °F 87% 30.17 in 5.0 mi NW 13.8 mph 17.3 mph N/A   Overcast
7:35 AM 35.6 °F 26.2 °F 32.0 °F 87% 30.19 in 4.0 mi NNW 15.0 mph 20.7 mph N/A   Overcast
7:55 AM 35.6 °F 27.5 °F 32.0 °F 87% 30.20 in 4.0 mi NW 11.5 mph 18.4 mph N/A   Overcast
8:15 AM 35.6 °F 27.5 °F 32.0 °F 87% 30.22 in 5.0 mi NW 11.5 mph - N/A   Overcast
8:35 AM 35.6 °F 27.5 °F 32.0 °F 87% 30.23 in 5.0 mi NW 11.5 mph 18.4 mph N/A   Haze
8:55 AM 35.6 °F 28.0 °F 32.0 °F 87% 30.24 in 5.0 mi NNW 10.4 mph 18.4 mph N/A   Haze
9:15 AM 35.6 °F 27.1 °F 32.0 °F 87% 30.25 in 5.0 mi North 12.7 mph 17.3 mph N/A   Haze
9:35 AM 35.6 °F 27.1 °F 32.0 °F 87% 30.25 in 10.0 mi NNW 12.7 mph 17.3 mph N/A   Overcast
9:55 AM 35.6 °F 26.6 °F 32.0 °F 87% 30.26 in 10.0 mi NNW 13.8 mph 21.9 mph N/A   Overcast
10:15 AM 35.6 °F 26.6 °F 32.0 °F 87% 30.27 in 10.0 mi NNW 13.8 mph 18.4 mph N/A   Overcast
10:35 AM 35.6 °F 26.6 °F 32.0 °F 87% 30.28 in 10.0 mi NNW 13.8 mph - N/A   Overcast
10:55 AM 37.4 °F 29.8 °F 32.0 °F 81% 30.28 in 10.0 mi North 11.5 mph 18.4 mph N/A   Overcast
11:15 AM 37.4 °F 28.9 °F 30.2 °F 75% 30.29 in 10.0 mi NNW 13.8 mph 21.9 mph N/A   Overcast
11:35 AM 37.4 °F 28.9 °F 30.2 °F 75% 30.29 in 10.0 mi NNW 13.8 mph 20.7 mph N/A   Overcast
11:55 AM 37.4 °F 29.8 °F 30.2 °F 75% 30.29 in 10.0 mi North 11.5 mph 17.3 mph N/A   Overcast
12:15 PM 37.4 °F 28.9 °F 30.2 °F 75% 30.28 in 10.0 mi North 13.8 mph 17.3 mph N/A   Overcast
12:35 PM 37.4 °F 29.8 °F 30.2 °F 75% 30.29 in 10.0 mi North 11.5 mph - N/A   Overcast
12:55 PM 37.4 °F 29.8 °F 30.2 °F 75% 30.28 in 10.0 mi North 11.5 mph 16.1 mph N/A   Overcast
1:15 PM 37.4 °F 30.8 °F 32.0 °F 81% 30.28 in 10.0 mi North 9.2 mph - N/A   Overcast
1:35 PM 37.4 °F 29.8 °F 30.2 °F 75% 30.29 in 10.0 mi North 11.5 mph - N/A   Overcast
1:55 PM 37.4 °F 29.8 °F 30.2 °F 75% 30.29 in 10.0 mi North 11.5 mph - N/A   Overcast
2:15 PM 35.6 °F 26.6 °F 30.2 °F 81% 30.29 in 10.0 mi NNE 13.8 mph 17.3 mph N/A   Overcast
2:35 PM 35.6 °F 28.0 °F 30.2 °F 81% 30.29 in 10.0 mi NNE 10.4 mph 17.3 mph N/A   Overcast
2:55 PM 35.6 °F 27.5 °F 30.2 °F 81% 30.30 in 10.0 mi North 11.5 mph - N/A   Overcast
3:15 PM 35.6 °F 28.0 °F 30.2 °F 81% 30.31 in 10.0 mi North 10.4 mph - N/A   Overcast
3:35 PM 35.6 °F 27.5 °F 28.4 °F 75% 30.32 in 10.0 mi North 11.5 mph - N/A   Overcast
3:55 PM 35.6 °F 28.6 °F 28.4 °F 75% 30.32 in 10.0 mi North 9.2 mph - N/A   Overcast
4:15 PM 35.6 °F 28.6 °F 28.4 °F 75% 30.33 in 10.0 mi NNE 9.2 mph - N/A   Overcast
4:35 PM 35.6 °F 29.9 °F 28.4 °F 75% 30.32 in 10.0 mi NNE 6.9 mph - N/A   Overcast
4:55 PM 35.6 °F 28.0 °F 28.4 °F 75% 30.34 in 10.0 mi North 10.4 mph - N/A   Overcast
5:15 PM 35.6 °F 32.8 °F 28.4 °F 75% 30.35 in 10.0 mi North 3.5 mph - N/A   Overcast
5:35 PM 35.6 °F 29.2 °F 30.2 °F 81% 30.36 in 10.0 mi North 8.1 mph - N/A   Overcast
5:55 PM 35.6 °F 29.2 °F 28.4 °F 75% 30.38 in 10.0 mi North 8.1 mph - N/A   Overcast
6:15 PM 33.8 °F 27.7 °F 28.4 °F 81% 30.37 in 10.0 mi NNE 6.9 mph - N/A   Overcast
6:35 PM 33.8 °F 27.0 °F 28.4 °F 81% 30.37 in 10.0 mi North 8.1 mph - N/A   Overcast
6:55 PM 33.8 °F 27.7 °F 28.4 °F 81% 30.36 in 10.0 mi North 6.9 mph - N/A   Overcast
7:15 PM 33.8 °F 25.8 °F 28.4 °F 81% 30.35 in 10.0 mi NE 10.4 mph - N/A   Overcast
7:35 PM 33.8 °F 27.7 °F 28.4 °F 81% 30.35 in 10.0 mi NNE 6.9 mph - N/A   Overcast
7:55 PM 33.8 °F 27.0 °F 28.4 °F 81% 30.35 in 10.0 mi NE 8.1 mph - N/A   Overcast
8:15 PM 33.8 °F 27.7 °F 28.4 °F 81% 30.35 in 10.0 mi ENE 6.9 mph - N/A   Overcast
8:35 PM 32.0 °F 26.4 °F 28.4 °F 87% 30.36 in 10.0 mi NE 5.8 mph - N/A   Overcast
8:55 PM 32.0 °F 24.2 °F 28.4 °F 87% 30.37 in 10.0 mi ENE 9.2 mph - N/A   Overcast
9:15 PM 32.0 °F 24.2 °F 28.4 °F 87% 30.39 in 10.0 mi NNE 9.2 mph - N/A   Overcast
9:35 PM 32.0 °F 27.5 °F 28.4 °F 87% 30.39 in 10.0 mi NE 4.6 mph - N/A   Overcast
9:55 PM 32.0 °F 24.8 °F 26.6 °F 80% 30.38 in 10.0 mi NNE 8.1 mph - N/A   Overcast
10:15 PM 32.0 °F 25.6 °F 28.4 °F 87% 30.37 in 10.0 mi ENE 6.9 mph - N/A   Overcast
10:35 PM 32.0 °F 23.6 °F 26.6 °F 80% 30.37 in 10.0 mi NE 10.4 mph - N/A   Overcast
10:55 PM 32.0 °F 24.8 °F 28.4 °F 87% 30.37 in 10.0 mi NE 8.1 mph - N/A   Overcast
11:15 PM 32.0 °F 25.6 °F 28.4 °F 87% 30.38 in 10.0 mi ENE 6.9 mph - N/A   Overcast
11:35 PM 32.0 °F 26.4 °F 26.6 °F 80% 30.37 in 10.0 mi NNE 5.8 mph - N/A   Overcast
11:55 PM 32.0 °F 25.6 °F 26.6 °F 80% 30.37 in 10.0 mi ENE 6.9 mph - N/A   Overcast